2021-06-16 00:05:09 r, 20.76m,0000000001Hz,0001095976c,0000002.378s, 030.2C,00002191
2021-06-16 00:15:11 r, 20.84m,0000000000Hz,0001171877c,0000002.543s, 029.9C,00002191
2021-06-16 00:25:09 r, 20.88m,0000000001Hz,0001225654c,0000002.660s, 029.9C,00002191
2021-06-16 00:35:09 r, 20.92m,0000000000Hz,0001267011c,0000002.750s, 029.6C,00002191
2021-06-16 00:45:11 r, 20.95m,0000000000Hz,0001309612c,0000002.842s, 029.6C,00002191
2021-06-16 00:55:09 r, 20.97m,0000000000Hz,0001334680c,0000002.896s, 029.3C,00002191
2021-06-16 01:05:09 r, 21.00m,0000000000Hz,0001352684c,0000002.936s, 029.3C,00002191
2021-06-16 01:15:10 r, 21.01m,0000000000Hz,0001370490c,0000002.974s, 029.3C,00002191
2021-06-16 01:25:09 r, 21.00m,0000000000Hz,0001364695c,0000002.962s, 029.0C,00002191
2021-06-16 01:35:09 r, 21.01m,0000000000Hz,0001368222c,0000002.969s, 029.0C,00002191
2021-06-16 01:45:09 r, 20.98m,0000000000Hz,0001341840c,0000002.912s, 029.0C,00002191
2021-06-16 01:55:09 r, 20.96m,0000000000Hz,0001318622c,0000002.862s, 029.0C,00002191
2021-06-16 02:05:09 r, 20.94m,0000000000Hz,0001291121c,0000002.802s, 028.6C,00002191
2021-06-16 02:15:11 r, 20.93m,0000000000Hz,0001279848c,0000002.777s, 028.6C,00002191
2021-06-16 02:25:09 r, 20.91m,0000000000Hz,0001260132c,0000002.735s, 028.6C,00002191
2021-06-16 02:35:09 r, 20.88m,0000000000Hz,0001226555c,0000002.662s, 028.6C,00002191
2021-06-16 02:45:11 r, 20.82m,0000000001Hz,0001156131c,0000002.509s, 028.3C,00002191
2021-06-16 02:55:09 r, 20.73m,0000000001Hz,0001059552c,0000002.299s, 028.3C,00002191
2021-06-16 03:05:09 r, 20.65m,0000000000Hz,0000979310c,0000002.125s, 028.3C,00002191
2021-06-16 03:15:09 r, 20.43m,0000000001Hz,0000809257c,0000001.756s, 028.3C,00002191
2021-06-16 03:25:09 r, 20.11m,0000000001Hz,0000605083c,0000001.313s, 028.3C,00002191
2021-06-16 03:35:09 r, 19.65m,0000000001Hz,0000397293c,0000000.862s, 028.0C,00002191
2021-06-16 03:45:09 r, 19.03m,0000000002Hz,0000224550c,0000000.487s, 028.0C,00002191
2021-06-16 03:55:09 r, 18.08m,0000000005Hz,0000093737c,0000000.203s, 028.0C,00002191
2021-06-16 04:05:09 r, 17.47m,0000000009Hz,0000053753c,0000000.117s, 028.0C,00002191
2021-06-16 04:15:10 r, 16.47m,0000000021Hz,0000021166c,0000000.046s, 028.0C,00002191
2021-06-16 04:25:10 r, 15.19m,0000000070Hz,0000006550c,0000000.014s, 028.0C,00002191
2021-06-16 04:35:09 r, 13.76m,0000000264Hz,0000000000c,0000000.000s, 027.7C,00002191
2021-06-16 04:45:11 r, 12.30m,0000001019Hz,0000000000c,0000000.000s, 027.7C,00002191
2021-06-16 04:55:10 r, 10.87m,0000003795Hz,0000000000c,0000000.000s, 028.0C,00002191
2021-06-16 05:05:09 r, 09.52m,0000013192Hz,0000000000c,0000000.000s, 028.0C,00002191
2021-06-16 05:15:11 r, 08.40m,0000036948Hz,0000000000c,0000000.000s, 027.7C,00002191
2021-06-16 05:25:09 r, 07.66m,0000073103Hz,0000000000c,0000000.000s, 028.0C,00002191
2021-06-16 05:35:09 r, 07.08m,0000123945Hz,0000000000c,0000000.000s, 027.7C,00002191
2021-06-16 05:45:09 r, 06.79m,0000163654Hz,0000000000c,0000000.000s, 028.0C,00002191
2021-06-16 05:55:12 r, 06.55m,0000202405Hz,0000000000c,0000000.000s, 028.0C,00002191
2021-06-16 06:05:09 r, 06.28m,0000259285Hz,0000000000c,0000000.000s, 028.0C,00002191
2021-06-16 06:15:10 r, 06.04m,0000326169Hz,0000000000c,0000000.000s, 028.3C,00002191
2021-06-16 06:25:09 r, 00.00m,0000426263Hz,0000000000c,0000000.000s, 028.3C,00002191
2021-06-16 06:35:09 r, 00.00m,0000558369Hz,0000000000c,0000000.000s, 029.3C,00002191
2021-06-16 06:45:11 r, 00.00m,0000595978Hz,0000000000c,0000000.000s, 030.6C,00002191
2021-06-16 06:55:10 r, 00.00m,0000595828Hz,0000000000c,0000000.000s, 031.9C,00002191
2021-06-16 07:05:09 r, 00.00m,0000595636Hz,0000000000c,0000000.000s, 033.1C,00002191
2021-06-16 07:15:11 r, 00.00m,0000595472Hz,0000000000c,0000000.000s, 034.1C,00002191
2021-06-16 07:25:10 r, 00.00m,0000595319Hz,0000000000c,0000000.000s, 035.4C,00002191
2021-06-16 07:35:09 r, 00.00m,0000595204Hz,0000000000c,0000000.000s, 036.0C,00002191
2021-06-16 07:45:10 r, 00.00m,0000595205Hz,0000000000c,0000000.000s, 037.0C,00002191
2021-06-16 07:55:10 r, 00.00m,0000595091Hz,0000000000c,0000000.000s, 038.0C,00002191
2021-06-16 08:05:09 r, 00.00m,0000594968Hz,0000000000c,0000000.000s, 039.0C,00002191
2021-06-16 08:15:10 r, 00.00m,0000594790Hz,0000000000c,0000000.000s, 039.9C,00002191
2021-06-16 08:25:10 r, 00.00m,0000594683Hz,0000000000c,0000000.000s, 040.9C,00002191
2021-06-16 08:35:09 r, 00.00m,0000594598Hz,0000000000c,0000000.000s, 041.5C,00002191
2021-06-16 08:45:10 r, 00.00m,0000594519Hz,0000000000c,0000000.000s, 042.5C,00002191
2021-06-16 08:55:12 r, 00.00m,0000594567Hz,0000000000c,0000000.000s, 042.8C,00002191
2021-06-16 09:05:09 r, 00.00m,0000594519Hz,0000000000c,0000000.000s, 041.9C,00002191
2021-06-16 09:15:11 r, 00.00m,0000594534Hz,0000000000c,0000000.000s, 041.9C,00002191
2021-06-16 09:25:10 r, 00.00m,0000594441Hz,0000000000c,0000000.000s, 042.8C,00002191
2021-06-16 09:35:09 r, 00.00m,0000594171Hz,0000000000c,0000000.000s, 044.4C,00002191
2021-06-16 09:45:10 r, 00.00m,0000593911Hz,0000000000c,0000000.000s, 045.4C,00002191
2021-06-16 09:55:10 r, 00.00m,0000593807Hz,0000000000c,0000000.000s, 046.4C,00002191
2021-06-16 10:05:09 r, 00.00m,0000593625Hz,0000000000c,0000000.000s, 046.7C,00002191
2021-06-16 10:15:10 r, 00.00m,0000593429Hz,0000000000c,0000000.000s, 048.0C,00002191
2021-06-16 10:25:10 r, 00.00m,0000593561Hz,0000000000c,0000000.000s, 048.3C,00002191
2021-06-16 10:35:09 r, 00.00m,0000593691Hz,0000000000c,0000000.000s, 047.0C,00002191
2021-06-16 10:45:10 r, 00.00m,0000593386Hz,0000000000c,0000000.000s, 048.3C,00002191
2021-06-16 10:55:12 r, 00.00m,0000593263Hz,0000000000c,0000000.000s, 049.6C,00002191
2021-06-16 11:05:09 r, 00.00m,0000593341Hz,0000000000c,0000000.000s, 049.3C,00002191
2021-06-16 11:15:12 r, 00.00m,0000593574Hz,0000000000c,0000000.000s, 048.0C,00002191
2021-06-16 11:25:10 r, 00.00m,0000593835Hz,0000000000c,0000000.000s, 046.7C,00002191
2021-06-16 11:35:09 r, 00.00m,0000594042Hz,0000000000c,0000000.000s, 045.4C,00002191
2021-06-16 11:45:11 r, 00.00m,0000594076Hz,0000000000c,0000000.000s, 044.4C,00002191
2021-06-16 11:55:10 r, 00.00m,0000594462Hz,0000000000c,0000000.000s, 042.5C,00002191
2021-06-16 12:05:09 r, 00.00m,0000594896Hz,0000000000c,0000000.000s, 040.2C,00002191
2021-06-16 12:15:10 r, 00.00m,0000595007Hz,0000000000c,0000000.000s, 038.6C,00002191
2021-06-16 12:25:11 r, 00.00m,0000595114Hz,0000000000c,0000000.000s, 037.7C,00002191
2021-06-16 12:35:09 r, 00.00m,0000595093Hz,0000000000c,0000000.000s, 037.3C,00002191
2021-06-16 12:45:11 r, 00.00m,0000594866Hz,0000000000c,0000000.000s, 039.0C,00002191
2021-06-16 12:55:10 r, 00.00m,0000594407Hz,0000000000c,0000000.000s, 041.2C,00002191
2021-06-16 13:05:09 r, 00.00m,0000594087Hz,0000000000c,0000000.000s, 043.8C,00002191
2021-06-16 13:15:12 r, 00.00m,0000593571Hz,0000000000c,0000000.000s, 046.7C,00002191
2021-06-16 13:25:10 r, 00.00m,0000593168Hz,0000000000c,0000000.000s, 049.3C,00002191
2021-06-16 13:35:09 r, 00.00m,0000592920Hz,0000000000c,0000000.000s, 051.2C,00002191
2021-06-16 13:45:09 r, 00.00m,0000592811Hz,0000000000c,0000000.000s, 052.5C,00002191
2021-06-16 13:55:10 r, 00.00m,0000592847Hz,0000000000c,0000000.000s, 052.5C,00002191
2021-06-16 14:05:09 r, 00.00m,0000592809Hz,0000000000c,0000000.000s, 052.2C,00002191
2021-06-16 14:15:09 r, 00.00m,0000592445Hz,0000000000c,0000000.000s, 054.1C,00002191
2021-06-16 14:25:10 r, 00.00m,0000592323Hz,0000000000c,0000000.000s, 055.4C,00002191
2021-06-16 14:35:09 r, 00.00m,0000592410Hz,0000000000c,0000000.000s, 055.7C,00002191
2021-06-16 14:45:09 r, 00.00m,0000593258Hz,0000000000c,0000000.000s, 051.5C,00002191
2021-06-16 14:55:12 r, 00.00m,0000594009Hz,0000000000c,0000000.000s, 046.7C,00002191
2021-06-16 15:05:09 r, 00.00m,0000590869Hz,0000000000c,0000000.000s, 043.1C,00002191
2021-06-16 15:15:09 r, 00.00m,0000477148Hz,0000000000c,0000000.000s, 040.9C,00002191
2021-06-16 15:25:10 r, 00.00m,0000594922Hz,0000000000c,0000000.000s, 039.6C,00002191
2021-06-16 15:35:09 r, 06.06m,0000319438Hz,0000000000c,0000000.000s, 038.3C,00002191
2021-06-16 15:45:09 r, 00.00m,0000595146Hz,0000000000c,0000000.000s, 037.7C,00002191
2021-06-16 15:55:11 r, 00.00m,0000594585Hz,0000000000c,0000000.000s, 040.2C,00002191
2021-06-16 16:05:09 r, 00.00m,0000594042Hz,0000000000c,0000000.000s, 044.1C,00002191
2021-06-16 16:15:09 r, 00.00m,0000593779Hz,0000000000c,0000000.000s, 046.7C,00002191
2021-06-16 16:25:10 r, 00.00m,0000593468Hz,0000000000c,0000000.000s, 048.3C,00002191
2021-06-16 16:35:09 r, 00.00m,0000592968Hz,0000000000c,0000000.000s, 051.8C,00002191
2021-06-16 16:45:09 r, 00.00m,0000592733Hz,0000000000c,0000000.000s, 053.8C,00002191
2021-06-16 16:55:12 r, 00.00m,0000592747Hz,0000000000c,0000000.000s, 054.4C,00002191
2021-06-16 17:05:09 r, 00.00m,0000592679Hz,0000000000c,0000000.000s, 054.4C,00002191
2021-06-16 17:15:09 r, 00.00m,0000592641Hz,0000000000c,0000000.000s, 054.4C,00002191
2021-06-16 17:25:10 r, 00.00m,0000592788Hz,0000000000c,0000000.000s, 054.1C,00002191
2021-06-16 17:35:09 r, 00.00m,0000592844Hz,0000000000c,0000000.000s, 053.8C,00002191
2021-06-16 17:45:09 r, 00.00m,0000592945Hz,0000000000c,0000000.000s, 053.5C,00002191
2021-06-16 17:55:10 r, 00.00m,0000593006Hz,0000000000c,0000000.000s, 053.1C,00002191
2021-06-16 18:05:09 r, 00.00m,0000593107Hz,0000000000c,0000000.000s, 052.8C,00002191
2021-06-16 18:15:09 r, 00.00m,0000593212Hz,0000000000c,0000000.000s, 052.2C,00002191
2021-06-16 18:25:11 r, 00.00m,0000593360Hz,0000000000c,0000000.000s, 051.2C,00002191
2021-06-16 18:35:09 r, 00.00m,0000593400Hz,0000000000c,0000000.000s, 050.6C,00002191
2021-06-16 18:45:09 r, 00.00m,0000593517Hz,0000000000c,0000000.000s, 049.9C,00002191
2021-06-16 18:55:12 r, 00.00m,0000593614Hz,0000000000c,0000000.000s, 049.6C,00002191
2021-06-16 19:05:09 r, 00.00m,0000593710Hz,0000000000c,0000000.000s, 048.9C,00002191
2021-06-16 19:15:09 r, 00.00m,0000593720Hz,0000000000c,0000000.000s, 048.3C,00002191
2021-06-16 19:25:12 r, 00.00m,0000593838Hz,0000000000c,0000000.000s, 046.7C,00002191
2021-06-16 19:35:09 r, 00.00m,0000593913Hz,0000000000c,0000000.000s, 046.7C,00002191
2021-06-16 19:45:09 r, 00.00m,0000594129Hz,0000000000c,0000000.000s, 045.4C,00002191
2021-06-16 19:55:10 r, 00.00m,0000594270Hz,0000000000c,0000000.000s, 044.4C,00002191
2021-06-16 20:05:09 r, 00.00m,0000594473Hz,0000000000c,0000000.000s, 043.5C,00002191
2021-06-16 20:15:09 r, 00.00m,0000594573Hz,0000000000c,0000000.000s, 042.5C,00002191
2021-06-16 20:25:11 r, 00.00m,0000549109Hz,0000000000c,0000000.000s, 041.9C,00002191
2021-06-16 20:35:09 r, 00.00m,0000481430Hz,0000000000c,0000000.000s, 040.9C,00002191
2021-06-16 20:45:09 r, 00.00m,0000406092Hz,0000000000c,0000000.000s, 040.2C,00002191
2021-06-16 20:55:12 r, 06.02m,0000330672Hz,0000000000c,0000000.000s, 039.6C,00002191
2021-06-16 21:05:09 r, 06.27m,0000261444Hz,0000000000c,0000000.000s, 038.6C,00002191
2021-06-16 21:15:09 r, 06.60m,0000192857Hz,0000000000c,0000000.000s, 038.0C,00002191
2021-06-16 21:25:12 r, 07.07m,0000125838Hz,0000000000c,0000000.000s, 037.0C,00002191
2021-06-16 21:35:10 r, 07.70m,0000070165Hz,0000000000c,0000000.000s, 036.4C,00002191
2021-06-16 21:45:09 r, 08.57m,0000031708Hz,0000000000c,0000000.000s, 035.7C,00002191
2021-06-16 21:55:10 r, 09.69m,0000011218Hz,0000000000c,0000000.000s, 035.1C,00002191
2021-06-16 22:05:10 r, 11.04m,0000003234Hz,0000000000c,0000000.000s, 034.8C,00002191
2021-06-16 22:15:09 r, 12.52m,0000000833Hz,0000000000c,0000000.000s, 034.4C,00002191
2021-06-16 22:25:11 r, 14.03m,0000000207Hz,0000000000c,0000000.000s, 033.8C,00002191
2021-06-16 22:35:10 r, 15.49m,0000000054Hz,0000008595c,0000000.019s, 033.5C,00002191
2021-06-16 22:45:09 r, 16.69m,0000000018Hz,0000025981c,0000000.056s, 033.1C,00002191
2021-06-16 22:55:12 r, 17.61m,0000000008Hz,0000060437c,0000000.131s, 032.8C,00002191
2021-06-16 23:05:10 r, 18.39m,0000000004Hz,0000123456c,0000000.268s, 032.5C,00002191
2021-06-16 23:15:09 r, 19.03m,0000000002Hz,0000223402c,0000000.485s, 031.9C,00002191
2021-06-16 23:25:12 r, 19.54m,0000000002Hz,0000355208c,0000000.771s, 031.2C,00002191
2021-06-16 23:35:10 r, 19.93m,0000000001Hz,0000509505c,0000001.106s, 030.9C,00002191
2021-06-16 23:45:10 r, 20.22m,0000000001Hz,0000668935c,0000001.452s, 030.6C,00002191
2021-06-16 23:55:10 r, 20.41m,0000000000Hz,0000797633c,0000001.731s, 030.2C,00002191
